Orbital Elements at Epoch 2459200.5 (2020-Dec-17.0) TDB
Reference: JPL 17 (heliocentric ecliptic J2000)
Element | Value | Uncertainty (1-sigma) | Units |
e | .1597015739998045 | 6.888e-08 | |
a | 2.692555609037588 | 1.7128e-08 | au |
q | 2.262550240192283 | 1.8904e-07 | au |
i | 3.816727709063428 | 4.9324e-06 | deg |
node | 49.63527563841436 | 8.8671e-05 | deg |
peri | 125.7684808975255 | 8.9802e-05 | deg |
M | 14.15556039394655 | 1.4752e-05 | deg |
tp | 2459137.044391168588 (2020-Oct-14.54439117) | 6.5854e-05 | TDB |
period | 1613.784162799893 4.42 | 1.5398e-05 4.216e-08 | d yr |
n | .2230781589623516 | 2.1286e-09 | deg/d |
Q | 3.122560977882893 | 1.9863e-08 | au |
|
| | Orbit Determination Parameters
Additional Information
|